Le nostre stazioni meteo in Italia

Pubblicità
Il mio iltempo24.it
Pratica Di Mare, Italia (16245): Temperatura & dewpoint: 15.06.2019 00:00:00 - 21.06.2019 00:00:00 (CEST)Pratica Di Mare, Italia (16245): velocità del vento: 15.06.2019 00:00:00 - 21.06.2019 00:00:00 (CEST)Pratica Di Mare, Italia (16245): direzione del vento: 15.06.2019 00:00:00 - 21.06.2019 00:00:00 (CEST)Pratica Di Mare, Italia (16245): reduced air pressure: 15.06.2019 00:00:00 - 21.06.2019 00:00:00 (CEST)Pratica Di Mare, Italia (16245): visibility: 15.06.2019 00:00:00 - 21.06.2019 00:00:00 (CEST)
Data & Tempo tt [°C] td [°C] ff [km/h] ff [kn] dd ppp [hPa] vv [km]
21.06.2019 00:00:00 - - - - - - -
20.06.2019 23:00:00 20,4 17,2 5 3 NNE 1015,0 15
20.06.2019 22:00:00 21,0 18,0 5 3 NNE - 10
20.06.2019 21:00:00 23,0 19,0 5 3 ONO - 10
20.06.2019 20:00:00 24,8 20,1 9 5 ONO 1014,3 20
20.06.2019 19:00:00 25,0 20,0 16 9 O - 10
20.06.2019 18:00:00 26,0 19,0 18 10 O - 10
20.06.2019 17:00:00 27,2 17,4 21 11 O 1014,8 20
20.06.2019 16:00:00 28,0 17,0 16 9 OSO - 10
20.06.2019 15:00:00 28,0 20,0 18 10 OSO - 10
20.06.2019 14:00:00 27,0 17,8 15 8 SO 1015,3 20
20.06.2019 13:00:00 27,0 22,0 16 9 OSO - 10
20.06.2019 12:00:00 26,0 21,0 11 6 SO - 10
20.06.2019 11:00:00 25,0 16,7 8 4 OSO 1014,8 20
20.06.2019 10:00:00 24,0 19,0 8 4 SO - 10
20.06.2019 09:00:00 23,0 19,0 13 7 OSO - 10
20.06.2019 08:00:00 22,0 19,5 2 1 N 1014,6 15
20.06.2019 07:00:00 21,0 19,0 4 2 NE - 10
20.06.2019 06:00:00 18,0 17,0 5 3 NE - 4,0
20.06.2019 05:00:00 18,4 16,7 8 4 NE 1014,8 4,0
20.06.2019 04:00:00 18,0 16,0 8 4 NNE - 10
20.06.2019 03:00:00 19,0 17,0 5 3 NNE - 10
20.06.2019 02:00:00 19,4 17,7 5 3 N 1014,8 15
20.06.2019 01:00:00 20,0 18,0 4 2 NNE - 10
20.06.2019 00:00:00 20,0 19,0 5 3 NNO - 10
19.06.2019 23:00:00 20,0 18,1 5 3 NNO 1014,5 15
19.06.2019 22:00:00 22,0 20,0 2 1 N - 10
19.06.2019 21:00:00 22,0 21,0 8 4 O - 10
19.06.2019 20:00:00 24,6 19,2 9 5 O 1013,9 20
19.06.2019 19:00:00 26,0 19,0 11 6 O - 10
19.06.2019 18:00:00 25,0 19,0 13 7 O - 10
19.06.2019 17:00:00 24,6 22,1 16 9 OSO 1014,5 20
19.06.2019 16:00:00 25,0 20,0 16 9 O - 10
19.06.2019 15:00:00 26,0 21,0 16 9 SO - 10
19.06.2019 14:00:00 25,2 20,7 15 8 OSO 1014,9 15
19.06.2019 13:00:00 25,0 21,0 13 7 OSO - 10
19.06.2019 12:00:00 24,0 21,0 13 7 OSO - 10
19.06.2019 11:00:00 24,0 20,7 11 6 OSO 1015,2 12
19.06.2019 10:00:00 23,0 21,0 9 5 OSO - 10
19.06.2019 09:00:00 23,0 21,0 8 4 OSO - 10
19.06.2019 08:00:00 22,0 19,9 4 2 SSO 1014,4 12
19.06.2019 07:00:00 21,0 19,0 2 1 - - 8
19.06.2019 06:00:00 19,0 18,0 5 3 NE - 5
19.06.2019 05:00:00 20,4 18,7 5 3 NNE 1014,2 4,0
19.06.2019 04:00:00 21,0 19,0 4 2 NO - 0,8
19.06.2019 03:00:00 18,0 17,0 5 3 NE - 10
19.06.2019 02:00:00 19,0 17,3 5 3 NNE 1014,6 12
19.06.2019 01:00:00 19,0 18,0 8 4 NNE - 10
19.06.2019 00:00:00 20,0 18,0 5 3 NNE - 10
18.06.2019 23:00:00 20,0 18,3 5 3 N 1014,6 12
18.06.2019 22:00:00 21,0 19,0 4 2 NNE - 10
18.06.2019 21:00:00 22,0 20,0 4 2 NNO - 10
18.06.2019 20:00:00 23,4 21,5 11 6 O 1014,1 15
18.06.2019 19:00:00 25,0 21,0 9 5 O - 10
18.06.2019 18:00:00 25,0 21,0 15 8 O - 10
18.06.2019 17:00:00 25,2 22,1 16 9 O 1014,1 15
18.06.2019 16:00:00 25,0 20,0 16 9 SO - 10
18.06.2019 15:00:00 25,0 20,0 16 9 OSO - 10
18.06.2019 14:00:00 25,2 18,9 16 9 SO 1014,8 15
18.06.2019 13:00:00 26,0 17,0 18 10 SO - 10
18.06.2019 12:00:00 25,0 18,0 15 8 SO - 10
18.06.2019 11:00:00 26,0 16,3 13 7 SO 1014,7 12
18.06.2019 10:00:00 25,0 17,0 4 2 ENE - 10
18.06.2019 09:00:00 23,0 19,0 5 3 ENE - 10
18.06.2019 08:00:00 21,0 18,9 4 2 NNE 1014,7 8
18.06.2019 07:00:00 19,0 17,0 5 3 NNE - 4,0
18.06.2019 06:00:00 18,0 16,0 5 3 NE - 0,8
18.06.2019 05:00:00 17,0 15,4 5 3 NNE 1014,7 15
18.06.2019 04:00:00 18,0 16,0 8 4 NE - 10
18.06.2019 03:00:00 - - - - - - -
18.06.2019 02:00:00 18,8 17,1 2 1 ENE 1014,7 15
18.06.2019 01:00:00 - - - - - - -
18.06.2019 00:00:00 19,0 18,0 5 3 N - 10
17.06.2019 23:00:00 20,0 18,3 4 2 O 1013,7 15
17.06.2019 22:00:00 21,0 20,0 4 2 NE - 10
17.06.2019 21:00:00 21,0 19,0 8 4 NO - 10
17.06.2019 20:00:00 23,0 20,9 13 7 O 1013,3 20
17.06.2019 19:00:00 25,0 21,0 15 8 O - 10
17.06.2019 18:00:00 25,0 19,0 16 9 O - 10
17.06.2019 17:00:00 25,2 20,5 15 8 O 1013,5 25
17.06.2019 16:00:00 25,0 21,0 16 9 OSO - 10
17.06.2019 15:00:00 25,0 21,0 13 7 OSO - 10
17.06.2019 14:00:00 25,0 20,9 15 8 SO 1013,9 25
17.06.2019 13:00:00 25,0 21,0 16 9 SSO - 10
17.06.2019 12:00:00 24,0 21,0 16 9 SSO - 10
17.06.2019 11:00:00 24,0 19,7 13 7 SO 1014,7 25
17.06.2019 10:00:00 23,0 19,0 4 2 S - 10
17.06.2019 09:00:00 22,0 19,0 5 3 SE - 10
17.06.2019 08:00:00 21,4 18,0 11 6 ESE 1014,1 12
17.06.2019 07:00:00 19,0 17,0 8 4 E - 10
17.06.2019 06:00:00 17,0 15,0 11 6 E - 10
17.06.2019 05:00:00 17,0 15,5 9 5 E 1013,6 10
17.06.2019 04:00:00 16,0 15,0 0 0 N - 10
17.06.2019 03:00:00 16,0 15,0 2 1 E - 10
17.06.2019 02:00:00 16,6 15,1 0 0 N 1014,5 10
17.06.2019 01:00:00 18,0 16,0 5 3 N - 10
17.06.2019 00:00:00 18,0 17,0 4 2 NNE - 10
16.06.2019 23:00:00 18,4 16,9 5 3 NNE 1014,4 10
16.06.2019 22:00:00 20,0 18,0 8 4 NNO - 10
16.06.2019 21:00:00 20,0 18,0 9 5 ONO - 10
16.06.2019 20:00:00 23,0 19,8 15 8 ONO 1015,3 20
16.06.2019 19:00:00 23,0 19,0 16 9 ONO - 10
16.06.2019 18:00:00 24,0 20,0 22 12 O - 10
16.06.2019 17:00:00 25,0 19,6 21 11 O 1015,6 20
16.06.2019 16:00:00 26,0 19,0 22 12 O - 10
16.06.2019 15:00:00 26,0 19,0 22 12 O - 10
16.06.2019 14:00:00 25,6 20,2 22 12 O 1015,6 20
16.06.2019 13:00:00 26,0 18,0 21 11 ONO - 10
16.06.2019 12:00:00 25,0 20,0 21 11 O - 10
16.06.2019 11:00:00 25,2 17,4 18 10 O 1015,8 20
16.06.2019 10:00:00 24,0 19,0 16 9 O - 10
16.06.2019 09:00:00 24,0 20,0 8 4 ONO - 10
16.06.2019 08:00:00 21,4 19,2 4 2 N 1014,8 15
16.06.2019 07:00:00 19,0 17,0 5 3 NNO - 10
16.06.2019 06:00:00 18,0 16,0 8 4 N - 10
16.06.2019 05:00:00 18,2 16,5 8 4 NO 1014,6 12
16.06.2019 04:00:00 18,0 17,0 9 5 N - 10
16.06.2019 03:00:00 18,0 17,0 4 2 - - 10
16.06.2019 02:00:00 18,8 17,1 8 4 N 1015,0 12
16.06.2019 01:00:00 20,0 18,0 4 2 - - 10
16.06.2019 00:00:00 21,0 19,0 9 5 NO - 10
15.06.2019 23:00:00 21,0 19,3 2 1 S 1014,4 12
15.06.2019 22:00:00 22,0 20,0 5 3 ONO - 10
15.06.2019 21:00:00 23,0 21,0 9 5 O - 10
15.06.2019 20:00:00 25,0 21,9 5 3 O 1013,9 15
15.06.2019 19:00:00 24,0 22,0 15 8 ONO - 10
15.06.2019 18:00:00 25,0 22,0 15 8 O - 10
15.06.2019 17:00:00 25,8 19,7 11 6 O 1014,5 15
15.06.2019 16:00:00 25,0 20,0 13 7 O - 10
15.06.2019 15:00:00 25,0 20,0 11 6 O - 10
15.06.2019 14:00:00 24,4 20,9 15 8 OSO 1015,0 15
15.06.2019 13:00:00 25,0 21,0 13 7 OSO - 10
15.06.2019 12:00:00 24,0 20,0 11 6 O - 10
15.06.2019 11:00:00 24,2 21,1 16 9 OSO 1015,0 15
15.06.2019 10:00:00 24,0 21,0 9 5 O - 10
15.06.2019 09:00:00 24,0 20,0 2 1 NNO - 10
15.06.2019 08:00:00 21,2 20,2 4 2 N 1015,2 15
15.06.2019 07:00:00 22,0 21,0 15 8 OSO - 10
15.06.2019 06:00:00 22,0 21,0 9 5 O - 10
15.06.2019 05:00:00 22,2 19,2 4 2 S 1015,0 15
15.06.2019 04:00:00 23,0 16,0 16 9 E - 10
15.06.2019 03:00:00 23,0 20,0 52 28 ESE - 10
15.06.2019 02:00:00 23,0 20,0 13 7 O 1015,1 15
15.06.2019 01:00:00 24,0 18,0 21 11 ESE - 10
15.06.2019 00:00:00 26,0 13,0 4 2 SE - 10

tt = Temperatura
td = dewpoint
ff = velocità del vento
dd = direzione del vento
ppp = reduced air pressure
vv = visibility

Stazioni seguenti

WeatherPro
AMSI
MeteoEarth